Regional Weather Roundup
Issued by NWS

Home | Current Version | Previous Version | Graphics & Text | Print | Product List | Glossary On
Versions: 1 2 3 4 5 6 7 8 9 10 11 12 13 14 15 16 17 18 19 20 21 22 23 24 25 26 27 28 29 30 31 32 33 34 35 36 37 38 39 40 41 42 43 44 45 46 47 48 49 50
000
ASUS45 KBOU 302107
RWRCO

WEATHER ROUNDUP FOR COLORADO
NATIONAL WEATHER SERVICE DENVER/BOULDER CO
300 PM MDT TUE SEP 30 2014

NOTE: "FAIR" INDICATES FEW OR NO CLOUDS BELOW 12000 FEET WITH NO
SIGNIFICANT WEATHER AND/OR OBSTRUCTIONS TO VISIBILITY.

COZ001>005-013-030-031-302200-
...NORTHWEST COLORADO...

CITY           SKY/WX    TMP DP  RH WIND       PRES   REMARKS
CRAIG          LGT RAIN  51  41  68 W17G23    29.96S
HAYDEN         CLOUDY    52  34  50 W22G32    29.95S
MEEKER         CLOUDY    51  42  71 SW6       29.98F
MOUNT WERNER   NOT AVBL
STEAMBOAT SPGS CLOUDY    49  39  68 SW5       29.95F
WALDEN         CLOUDY    45  32  61 W7        29.96F
$$

COZ006>008-011-302200-
...WEST CENTRAL VALLEYS...

CITY           SKY/WX    TMP DP  RH WIND       PRES   REMARKS
GRAND JUNCTION CLOUDY    63  44  50 VRB3      29.94F
MONTROSE       CLOUDY    60  41  49 NE3       29.98F
EAGLE          PTSUNNY   54  41  62 SW14      29.99F
RIFLE          CLOUDY    57  43  59 VRB3      29.95F
DELTA          CLOUDY    62  42  46 CALM      29.96S
NUCLA          CLOUDY    61  37  41 SW5       30.01F
$$

COZ017>023-064>068-302200-
...SOUTHWEST COLORADO...

CITY           SKY/WX    TMP DP  RH WIND       PRES   REMARKS
DURANGO        MOSUNNY   59  40  49 SW13      30.02F
CORTEZ         SUNNY     63  37  38 W14       30.00F
PAGOSA SPRINGS CLOUDY    54  37  52 SW8       30.07S
TELLURIDE      PTSUNNY  N/A N/A N/A W5        30.10F
WOLF CREEK PAS SNOW      30  30 100 SW16      30.20S VSB<1/4 WCI  19
$$

COZ009-010-012-014-032>034-037-058>063-302200-
...CENTRAL COLORADO...

CITY           SKY/WX    TMP DP  RH WIND       PRES   REMARKS
ASPEN          CLOUDY    48  34  58 NW6       30.02F
BUENA VISTA    PTSUNNY   53  24  32 W13G21    30.00F
COPPER MTN     CLOUDY    34  28  80 S12G18    30.14F WCI  25
BERTHOUD PASS  CLOUDY    25  23  93 W29G39    30.12R WCI   8
COTTONWOOD PAS MOSUNNY   48  27  43 W7G22     30.06F
GUNNISON       CLOUDY    50  34  53 CALM      30.05F
KREMMLING      PTSUNNY   52  34  50 SW17G28   29.96F
LEADVILLE      CLOUDY    42  28  57 N13G23    30.06F
SALIDA         MOSUNNY   57  29  35 W15G28    30.07S
SUNLIGHT       CLOUDY    36  36 100 CALM      30.13S
WILKERSON PASS NOT AVBL
$$

COZ069>075-302200-
...SAN LUIS VALLEY/SANGRE DE CRISTO MOUNTAINS...

CITY           SKY/WX    TMP DP  RH WIND       PRES   REMARKS
ALAMOSA        SUNNY     61  31  32 NW7       29.99F
LA VETA PASS   SUNNY     48  28  46 S7G23     30.09S
SAGUACHE       CLOUDY    54  32  43 N15G22    30.01F
$$

COZ035-036-038>040-302200-
...NORTHERN COLORADO FRONT RANGE...

CITY           SKY/WX    TMP DP  RH WIND       PRES   REMARKS
DENVER INTL AP PTSUNNY   65  34  31 NW15      29.82F
DMNS CITY PARK   N/A     65  31  28 NW3G15    29.83S
AURORA         PTSUNNY   65  32  28 NW17      29.84F
FRONT RANGE AP PTSUNNY   68  37  32 W15       29.84F
ERIE MUNI ARPT MOSUNNY   65  31  28 SW8       29.81F
BOULDER MUN AP MOSUNNY   63  32  31 SW7G18    29.82S
CENTENNIAL     PTSUNNY   64  32  30 NW9       29.84F
BROOMFIELD     NOT AVBL
FORT COLLINS   MOSUNNY   64  34  32 W13G22    29.81F
LONGMONT       MOSUNNY   66  32  27 SW16G25   29.82F
$$

COZ041-046-047-076>085-087-088-302200-
...PIKES PEAK/PALMER DIVIDE AND SOUTHERN FOOTHILLS...

CITY           SKY/WX    TMP DP  RH WIND       PRES   REMARKS
COLO. SPRINGS  MOSUNNY   68  26  20 E6        29.85F
A. F. ACADEMY  MOSUNNY   67  26  21 NW12G25   29.87S
ELLICOTT       NOT AVBL
FALCON         MOSUNNY   65  28  24 CALM      29.90F
FORT CARSON    SUNNY     68  31  25 VRB6      29.84F
LIMON          SUNNY     68  33  27 NW13G18   29.83F
MONUMENT HILL  MOSUNNY   61  30  31 N3        29.89F
TRINIDAD       SUNNY     71  29  21 E9        29.85S
$$

COZ042>045-048>051-090-091-302200-
...NORTHEAST COLORADO...

CITY           SKY/WX    TMP DP  RH WIND       PRES   REMARKS
GREELEY ARPT   MOSUNNY   70  36  28 W14G20    29.80F
AKRON          PTSUNNY   68  37  32 W5        29.80F
BURLINGTON     SUNNY     72  33  24 NE3       29.79F
WRAY           SUNNY     78  34  20 S8        29.75F
STERLING       PTSUNNY   77  41  27 S10       29.75F
HOLYOKE        SUNNY     73  39  29 W6        29.76S
FORT MORGAN    PTSUNNY   71  31  22 SW9       29.79F
$$

COZ086-089-092>099-302200-
...SOUTHEAST COLORADO...

CITY           SKY/WX    TMP DP  RH WIND       PRES   REMARKS
PUEBLO         SUNNY     75  29  18 W16G26    29.78F
LA JUNTA       SUNNY     75  31  19 VRB6      29.78F
LAMAR          SUNNY     75  37  25 VRB3      29.76F
SPRINGFIELD      N/A     75  30  19 VRB7      29.79F
$$



USA.gov is the U.S. government's official web portal to all federal, state and local government web resources and services.